SBI1712 UUWW-ULLI

Flight info

Callsign SBI1712
Flight time N/A
Altitude 36000
Route SUNUN M869 RAVKA N50 NUDKO T561 ODATI T875 GENPA
Aircraft B738/M-VGD/A

Departure

Time 2026-05-05 16:00
Airport Vnukovo International Airport (UUWW)

Arrival

Time N/A
Airport Pulkovo Airport (ULLI)
Time Latitude Longitude Altitude Speed Heading
2026-05-05 15:32 55.60177 37.28051 677 ft 0 kts 39°
2026-05-05 15:50 55.60157 37.28021 679 ft 6 kts 39°
2026-05-05 15:50 55.60147 37.28007 678 ft 0 kts 39°
2026-05-05 15:51 55.60125 37.27948 676 ft 9 kts 92°
2026-05-05 15:51 55.60149 37.27883 677 ft 11 kts 149°
2026-05-05 15:51 55.60191 37.27849 673 ft 0 kts 163°
2026-05-05 15:53 55.60177 37.27858 674 ft 5 kts 158°
2026-05-05 15:53 55.60130 37.27911 679 ft 12 kts 137°
2026-05-05 15:54 55.60078 37.28075 681 ft 17 kts 98°
2026-05-05 15:54 55.60083 37.28297 683 ft 19 kts 85°
2026-05-05 15:54 55.60138 37.28507 681 ft 20 kts 47°
2026-05-05 15:54 55.60215 37.28688 684 ft 12 kts 88°
2026-05-05 15:55 55.60184 37.28764 684 ft 8 kts 140°
2026-05-05 15:55 55.60143 37.28832 688 ft 9 kts 150°
2026-05-05 15:55 55.60075 37.28882 689 ft 14 kts 166°
2026-05-05 15:55 55.59978 37.28924 689 ft 15 kts 165°
2026-05-05 15:56 55.59926 37.28947 687 ft 0 kts 165°
2026-05-05 15:59 55.59909 37.28955 685 ft 8 kts 165°
2026-05-05 15:59 55.59825 37.28976 685 ft 14 kts 195°
2026-05-05 15:59 55.59763 37.28842 684 ft 7 kts 252°
2026-05-05 15:59 55.59761 37.28833 685 ft 6 kts 251°
2026-05-05 16:00 55.59630 37.28241 681 ft 98 kts 248°
2026-05-05 16:00 55.59268 37.26659 668 ft 175 kts 248°
2026-05-05 16:00 55.58777 37.24458 1156 ft 204 kts 248°
2026-05-05 16:00 55.58110 37.22272 2027 ft 207 kts 227°
2026-05-05 16:01 55.57120 37.20407 2833 ft 207 kts 233°
2026-05-05 16:01 55.56296 37.18406 3546 ft 197 kts 237°
2026-05-05 16:01 55.55507 37.16418 4169 ft 200 kts 237°
2026-05-05 16:01 55.54923 37.14164 4740 ft 210 kts 256°
2026-05-05 16:02 55.54768 37.11533 5380 ft 219 kts 267°
2026-05-05 16:02 55.54768 37.08833 6233 ft 220 kts 268°
2026-05-05 16:02 55.55039 37.06160 6617 ft 224 kts 292°
2026-05-05 16:02 55.56000 37.03937 6810 ft 239 kts 317°
2026-05-05 16:03 55.57564 37.02663 6832 ft 259 kts 345°
2026-05-05 16:03 55.59389 37.02448 6850 ft 266 kts 355°
2026-05-05 16:03 55.61242 37.02487 6850 ft 266 kts 356°
2026-05-05 16:03 55.63087 37.02539 6834 ft 264 kts 356°
2026-05-05 16:04 55.64890 37.02251 6830 ft 259 kts 338°
2026-05-05 16:04 55.66621 37.01080 6858 ft 273 kts 332°
2026-05-05 16:04 55.68387 36.99706 7412 ft 280 kts 331°
2026-05-05 16:04 55.70169 36.98346 8378 ft 278 kts 331°
2026-05-05 16:05 55.71960 36.97003 9254 ft 282 kts 331°
2026-05-05 16:05 55.73772 36.95655 9711 ft 281 kts 331°
2026-05-05 16:05 55.75577 36.94280 10384 ft 284 kts 330°
2026-05-05 16:05 55.77397 36.92881 10795 ft 286 kts 330°
2026-05-05 16:06 55.79221 36.91482 11441 ft 288 kts 330°